Regional Weather Roundup
Issued by NWS Wakefield, VA

Home | Current Version | Previous Version | Graphics & Text | Print | Product List | Glossary On
Versions: 1 2 3 4 5 6 7 8 9 10 11 12 13 14 15 16 17 18 19 20 21 22 23 24 25 26 27 28 29 30 31 32 33 34 35 36 37 38 39 40 41 42 43 44 45 46 47 48 49 50
000
ASUS41 KAKQ 200115
RWRAKQ

REGIONAL WEATHER ROUNDUP
NATIONAL WEATHER SERVICE WAKEFIELD VA
800 PM EST FRI JAN 19 2018

Note: "fair" indicates few or no clouds below 12,000 feet with no
significant weather and/or obstructions to visibility. * = Denotes
station may not report precipitation (e.g., rain,snow,etc.),
thunder or fog.

VAZ042-051-052>054-056-200200-
NORTHERN VIRGINIA

CITY           SKY/WX    TMP DP  RH WIND       PRES   REMARKS
WASH NATIONAL  FAIR      38  22  52 S7        30.05S
DULLES         FAIR      38  13  35 S5        30.03S
FORT BELVOIR   FAIR      30  12  46 CALM      30.05S
QUANTICO       NOT AVBL
FREDERICKSBRG* FAIR      37  16  42 CALM      30.05S
STAFFORD*      FAIR      38  11  33 CALM      30.09S
WARRENTON      FAIR      27  12  52 CALM      30.03S
CULPEPER*      FAIR      32  10  40 CALM      30.05S
MANASSAS*      FAIR      28  18  66 CALM      30.04F
LEESBURG*      FAIR      34  21  60 CALM      30.04R
WINCHESTER     FAIR      32  18  55 CALM      30.05R
FRONT ROYAL*   FAIR      39  12  33 SE5       30.02S
LURAY*         FAIR      32  18  55 CALM      30.03S
$$

VAZ048-049-060>072-079>083-200200-
CENTRAL AND SOUTH CENTRAL VIRGINIA

CITY           SKY/WX    TMP DP  RH WIND       PRES   REMARKS
RICHMOND       FAIR      37  14  38 S5        30.09R
CHESTERFIELD*  NOT AVBL
PETERSBURG*    FAIR      27  18  69 SW3       30.11R
HANOVER        FAIR      33  16  49 S3        30.09R
TAPPAHANNOCK*  FAIR      36  15  42 SW5       30.08S
QUINTON*       FAIR      34  19  55 MISG      30.09R
CHARLOTTSVILLE FAIR      44   9  23 S9        30.04R
GORDONSVILLE*  FAIR      32  17  54 CALM      30.05R
ORANGE*        FAIR      41   9  26 CALM      30.05S
LOUISA*        FAIR      41   7  25 S5        30.10R
BUMPASS*       FAIR      39   6  25 S5        30.06S
FARMVILLE*     FAIR      37  11  34 SW5       30.08S
CREWE*         FAIR      41  11  29 CALM      30.10R
FORT PICKETT*  FAIR      39  12  33 SW7       30.10S
CHASE CITY*    FAIR      33  14  46 CALM      30.12S
CLARKSVILLE*   FAIR      36  12  38 SW5       30.12S
SOUTH HILL*    FAIR      30  21  68 SW5       30.17S
LAWRENCEVILLE* FAIR      36  11  36 CALM      30.12R
EMPORIA*       FAIR      32  21  64 CALM      30.14S
$$

VAZ088>098-200200-
SOUTHEAST VIRGINIA

CITY           SKY/WX    TMP DP  RH WIND       PRES   REMARKS
NORFOLK        FAIR      43  18  36 SW8       30.10R
VIRGINIA BEACH FAIR      36  17  46 W5        30.10R
NORFOLK NAVAL  FAIR      38  20  48 SW6       30.12R
WEST POINT*    FAIR      29  20  67 CALM      30.11S
SALUDA*        FAIR      31  24  74 SW3       30.09R
NEWPORT NEWS   FAIR      44  14  29 W6        30.11R
LANGLEY AFB    FAIR      39  18  42 SW3       30.10R
FORT EUSTIS    FAIR      44  13  28 CALM      30.08R
WILLIAMSBURG*  FAIR      36  21  55 CALM      30.11R
HR EXEC AP*    FAIR      28  20  71 CALM      30.13R
FRANKLIN*      FAIR      35  20  53 CALM      30.13R
US460-WAKEFLD  FAIR      33  21  61 CALM      30.11R
$$

VAZ020-022-025-037-045-200200-
WEST CENTRAL AND SOUTHWEST VIRGINIA

CITY           SKY/WX    TMP DP  RH WIND       PRES   REMARKS
STAUNTON*      FAIR      39   6  25 SW6       30.06R
WAYNESBORO*    FAIR      43   0  16 SW8       30.05S
HOT SPRINGS VA FAIR      35 -17  10 W23       30.02S WCI  23
LYNCHBURG      FAIR      34  13  41 CALM      30.09S
DANVILLE       FAIR      37  12  35 SW3       30.13S
SOUTH BOSTON*  FAIR      33  11  39 CALM      30.12S
MARTINSVILLE   FAIR      29  14  53 CALM      30.16R
ROANOKE        FAIR      41  10  28 W7        30.12R
BLACKSBURG     FAIR      31  12  45 CALM      30.14R
DUBLIN*        FAIR      33  11  40 SW8       30.13R
MARION*        FAIR      33   5  29 W16       30.14S WCI  23
HILLSVILLE*    FAIR      37   0  21 NW5       30.10S
RICHLANDS*     FAIR      35   0  22 SW7       30.13S
WISE*          FAIR      32  12  43 SW6       30.12S
ABINGDON*      FAIR      31  15  51 CALM      30.17R
$$

MDZ021>025-VAZ099-100-200200-
SOUTHERN MARYLAND AND THE DELMARVA PENINSULA

CITY           SKY/WX    TMP DP  RH WIND       PRES   REMARKS
PATUXENT RIVER NOT AVBL
BAY BRIDGE APT FAIR      37  18  44 S8        30.05S
LEONARDTOWN    FAIR      34  16  47 CALM      30.07F
DOVER          FAIR      37  22  53 S6        30.04F
GEORGETOWN     FAIR      32  19  58 S3        30.07S
EASTON         CLEAR     36  18  48 S6        30.09S
CAMBRIDGE      CLEAR     30  19  64 SE6       30.07S
SALISBURY      FAIR      27  20  75 CALM      30.08S
OCEAN CITY     FAIR      31  22  69 SW3       30.09R
WALLOPS ISLAND FAIR      29  20  69 CALM      30.10R
ACCOMACK*      FAIR      30  23  74 S7        30.09S
$$

NCZ012>017-030>032-200200-
NORTH CENTRAL AND EASTERN NORTH CAROLINA

CITY           SKY/WX    TMP DP  RH WIND       PRES   REMARKS
ROANOKE RAPIDS FAIR      37  21  52 SW6       30.14R
RALEIGH        FAIR      37  24  59 CALM      30.16R
ELIZABETH CITY FAIR      38  28  67 W6        30.13R
AHOSKIE*       FAIR      31  22  69 CALM      30.14R
EDENTON*       FAIR      48  21  34 W5        30.14R
CURRITUCK*     FAIR      34  27  75 SW3       30.12S
KILL DEVIL HLS FAIR      41  21  45 CALM      30.11R
MANTEO         FAIR      38  28  69 CALM      30.14R
CAPE HATTERAS  FAIR      48  43  82 W7        30.15R
TARBORO*       NOT AVBL
GOLDSBORO      FAIR      38  25  59 CALM      30.14S
WASHINGTON     FAIR      38  25  58 CALM      30.16R
GREENVILLE     FAIR      37  23  56 CALM      30.16S
NEW BERN       FAIR      42  30  62 SW6       30.17R
WILMINGTON     FAIR      43  31  62 SW7       30.20R
$$

VAZ048-200200-
ELSEWHERE

CITY           SKY/WX    TMP DP  RH WIND       PRES   REMARKS
HARRISBURG PA  FAIR      31  22  69 CALM      30.00S
BALTIMORE      FAIR      33  19  56 CALM      30.04R
ANNAPOLIS      FAIR      40  19  43 CALM      30.05S
ANDREWS AFB    FAIR      39  11  32 S9        30.03S
PHILADELPHIA   FAIR      39  20  46 SW9       30.03S
HENDERSON NC   FAIR      34  17  49 SW8       30.13S
GREENSBORO     FAIR      40  15  36 SW7       30.13R
ROCKY MOUNT    NOT AVBL
$$

VAZ100-200200-
MARINE

STATION/POSITION TIME  TEMP    WIND        PRES    WAVE   SWELL
                       AIR SEA DIR/SP/G            HT/PER HT/PER
                 (UTC) (F)     (DEG/KT/KT) (MB)    (FT/S) (FT/S)
BRANDYWINE LGT   0042   43     220/ 14/ 15 1018.0F
CAPE MAY NJ      0036   39 33  200/  9/ 14 1017.4S
LEWES DE         0042   40 33  220/  6/  8 1017.8S
15NM E FENWICK I 0050   40 40  210/ 10/ 12 1018.8R   2/11   2/11
OCEAN-CITY-INLET 0042   33 36  240/  3/  4 1019.0S
WACHAPREAGUE VA  0042   35 35  210/  5/  7 1019.1R
THOMAS POINT MD  0000   35 32  190/ 13/ 14   N/A
GOOSES REEF MD   0100   35 33  210/  6/  8 1018.3    1
COVE POINT MD    0042   38     190/ 11/ 12 1018.6F
SOLOMONS ISLAND  0042   35 34   CALM  /  1 1017.8F
BISHOPS HEAD MD  0042   33 32  160/  6/  6 1018.6F
PINEY POINT MD   0048          150/  5/  5   N/A
POTOMAC MD       0100   34 33  310/  2/  4 1017.8    0
CAMBRIDGE MD     0042   34 32              1018.7F
LEWISETTA VA     0042   35 32  220/  3/  4 1018.4R
RAPPAHANNOCK LGT 0048          170/ 12/ 12 1019.6R
STINGRAY PT      0100   35 34  200/  8/  8 1021.9    0
YORK RVR RNG VA  0042   46     240/  7/  7 1019.6R
YORKTOWN VA      0042   46 35  240/  6/  8 1018.8R
DOMINION TERM VA 0042   42     250/  8/  9 1019.5R
KIPTOPEKE VA     0042      35  150/  3/  3   N/A
CAPE HENRY VA    0042   47     230/  5/  7   N/A
WILLOUBY STN VA  0048          230/ 10/ 10 1019.2R
S CRANEY ISL VA  0042   44     240/  4/  5 1019.2R
CAPE HENRY BUOY  0030      40                N/A     2/11   2/11
1ST LANDING BUOY 0100   37 35  210/  4/  4 1019.5    1/ 5
CAPE CHARLES BUO 0051      38                N/A     2/11   2/11
64NM E OF VA BCH 0050   52 57  250/ 14/ 16 1019.8R   3/ 4   2/10
DUCK PIER NC     0042   45 39  210/  5/  7 1019.4R
44100 DUCK FRF   0045      43                N/A     3/11   2/11
44056 DUCK FRF   0100      39                N/A     2/10   2/11
OREGON INLET NC  0048          220/ 10/ 11   N/A
HATTERAS NC      0042   49 45  250/  8/ 11 1020.5R
DIAMOND SHLS NC  0050   59 71  240/ 17/ 19 1021.0R   4/11   3/11
CAPE LOOKOUT NC  0000          230/  6/  8 1021.8R
$$



USA.gov is the U.S. government's official web portal to all federal, state and local government web resources and services.